DECAYED

NOAA 17 DEB, 48171 (Decayed)

Orbit data source: Space-Track

NOAA 17 DEB, 48171 was space debris in SSO originally from a launch on Mon, 24 Jun 2002 UTC launched from the Air Force Western Test Range (AFWTR). Debris objects in space refer to the collection of defunct objects orbiting the Earth. Examples of debris include non-operational satellites, rocket bodies, and fragments generated from explosions, collisions, or faulty payload assembly.

Loading next visibility...
Identifier
48171, 2002-032M
Orbit
Decayed
Country
Flag of USUS
Related business
Manufacturer
Unknown
Mission
Decayed spacecraft
Bus & Motor
Unknown
Mass
Unknown
Launch date (UTC)
2002-06-24 (24 years ago)
Launch vehicle
Unknown
Launch site
Air Force Western Test Range (AFWTR)
Object type
Payload
Rocket body
Debris
Shape & HBR
Unknown shape, 0.1 m
Radar Cross Section
Medium (>0.1 m² and <1 m²)

Expand to show TLE details & history
Last TLE update: 1 year ago

TLE from 1 year ago
0 NOAA 17 DEB
1 48171U 02032M   25113.32594005  .00578671  00000-0  12257-1 0  9990
2 48171  98.6793 141.5834 0009646 123.1040 237.1131 15.42820967218055
Epoch: 2025-04-23T07:49Z
TLE epoch observation values (Epoch: 2025-04-23T07:49:21.220Z)
Latitude
0.00001°
Longitude
172.63165°
Altitude
444.445 km
Speed
7.643 km/s
True Right ascension
09h 26m 20s
True Declination
0° 00' 00"
Sunlit
Object was in daylight at epoch
Visualization orbit readout
Latitude
Unknown
Longitude
Unknown
Altitude
Unknown
Speed
Unknown
Apparent Right ascension
Unknown
Apparent Declination
Unknown
Sunlit
N/A
Visualization observer readout
Local Sidereal Time
21:30:30
Azimuth
Unknown
Elevation
Unknown
Doppler factor
Unknown
Orbital elements
Apogee altitude
441.355 km
Perigee altitude
428.212 km
Semi-major axis
6,812.92 km
Eccentricity
0.00096
Inclination
98.6793°
RAAN
141.5834°
Arg. of periapsis
123.104°
True anomaly
237.02034°
Mean anomaly
237.1131°
Eccentric anomaly
237.06671°
Mean motion
3.85961 °/min
Orbital period
93.27 mins
BSTAR
0.012257
Loading maneuver chart data...
Computing Atmospheric mass density...

Documentation

Showing up to 5 results
|